Temp
-11 -10 -10 -10 -10 -10 -10 -10 -10 -10 -10 -10 -10 -10 -10 -10 -10 -10 -10 -10 -10 -10 -10 -10 -10 -10 -10 -10 -10 -9 -10 -11 -12 -12 -12 -12 -10 -10 -10 -10 -10 -10 -11 -11 -11 -11 -10 -10 -9 -11 -10 -10 -10 -10
-10 -10 -10 -10 -10 -10 -10 -10 -10 -10 -10 -10 -10 -10 -10 -10 -10 -10 -10 -10 -10 -10 -10 -10 -10 -10 -10 -10 -11 -11 -11 -11 -13 -12 -13 -11 -12 -11 -10 -10 -12 -10 -10 -10 -11 -9 -10 -10 -10 -10 -10 -11 -10 -10
-10 -10 -10 -10 -10 -10 -11 -11 -11 -11 -11 -10 -11 -10 -10 -10 -10 -10 -10 -10 -10 -10 -10 -10 -10 -10 -10 -10 -10 -11 -12 -11 -12 -12 -12 -12 -11 -12 -13 -13 -12 -10 -10 -11 -11 -11 -10 -10 -11 -11 -11 -11 -10 -10
-10 -10 -10 -10 -10 -10 -10 -11 -11 -11 -11 -11 -10 -11 -11 -10 -10 -10 -10 -10 -10 -10 -10 -10 -10 -11 -11 -11 -11 -11 -11 -12 -12 -12 -12 -13 -14 -13 -13 -12 -10 -11 -11 -11 -11 -11 -10 -10 -11 -11 -11 -11 -10 -10
-10 -10 -10 -10 -10 -10 -11 -11 -11 -11 -11 -11 -11 -11 -10 -11 -11 -10 -10 -10 -10 -11 -10 -11 -10 -11 -11 -11 -11 -11 -11 -12 -12 -12 -12 -13 -13 -12 -12 -12 -11 -12 -12 -13 -12 -11 -10 -11 -11 -11 -11 -10 -10 -10
-11 -11 -11 -11 -11 -11 -11 -11 -11 -11 -11 -11 -11 -11 -11 -11 -11 -11 -11 -11 -11 -11 -11 -11 -11 -11 -11 -11 -11 -11 -11 -12 -12 -13 -13 -13 -12 -12 -12 -11 -10 -10 -9 -10 -11 -12 -12 -12 -11 -11 -11 -11 -11 -11
-11 -11 -11 -11 -11 -11 -11 -11 -11 -11 -11 -11 -11 -11 -11 -11 -11 -11 -11 -11 -11 -11 -11 -11 -11 -11 -11 -11 -11 -11 -11 -12 -12 -12 -13 -13 -13 -12 -11 -11 -11 -12 -11 -11 -11 -11 -11 -11 -11 -11 -11 -11 -11 -11
-11 -11 -11 -11 -11 -11 -11 -11 -11 -11 -11 -11 -11 -11 -11 -11 -11 -11 -11 -12 -12 -12 -11 -11 -12 -11 -12 -11 -11 -12 -12 -12 -12 -12 -13 -13 -12 -11 -10 -11 -9 -12 -12 -11 -11 -12 -12 -12 -12 -12 -12 -11 -11 -11
-11 -11 -11 -11 -11 -11 -11 -11 -11 -11 -11 -11 -11 -11 -11 -11 -11 -12 -12 -12 -12 -12 -12 -12 -12 -12 -12 -12 -12 -12 -12 -11 -12 -12 -12 -12 -12 -11 -11 -11 -11 -11 -11 -12 -12 -13 -13 -12 -12 -12 -12 -12 -11 -11
-12 -12 -12 -12 -12 -11 -11 -11 -11 -11 -11 -11 -12 -12 -12 -12 -12 -12 -12 -13 -13 -13 -13 -13 -12 -12 -13 -12 -12 -13 -12 -12 -11 -12 -11 -11 -11 -11 -11 -12 -12 -12 -12 -12 -13 -12 -12 -13 -12 -12 -12 -12 -12 -12
-12 -12 -12 -12 -12 -12 -11 -11 -11 -11 -11 -12 -12 -12 -12 -13 -13 -13 -13 -13 -13 -13 -13 -13 -13 -13 -13 -13 -12 -12 -11 -11 -13 -12 -12 -12 -12 -12 -11 -11 -12 -12 -12 -12 -13 -13 -13 -13 -13 -13 -12 -12 -12 -12
-12 -12 -12 -12 -12 -12 -12 -12 -12 -12 -12 -12 -13 -13 -13 -14 -13 -13 -14 -14 -14 -14 -14 -14 -14 -14 -13 -13 -13 -12 -13 -13 -12 -12 -12 -12 -12 -12 -12 -12 -12 -12 -12 -12 -12 -12 -12 -12 -12 -12 -12 -12 -12 -12
-12 -12 -12 -12 -12 -12 -12 -12 -12 -13 -12 -13 -14 -14 -14 -14 -14 -14 -14 -14 -15 -14 -14 -14 -14 -15 -14 -15 -14 -13 -13 -13 -13 -12 -12 -12 -12 -13 -12 -12 -12 -12 -12 -12 -12 -12 -12 -12 -12 -12 -12 -12 -12 -12
-12 -12 -12 -12 -13 -13 -13 -13 -13 -13 -13 -14 -15 -15 -14 -14 -15 -15 -16 -15 -16 -16 -16 -15 -15 -15 -15 -15 -15 -15 -14 -14 -14 -13 -12 -12 -12 -12 -12 -12 -12 -12 -12 -12 -12 -12 -12 -12 -12 -12 -12 -12 -12 -12
-13 -13 -13 -13 -13 -13 -13 -13 -13 -14 -14 -15 -15 -15 -15 -15 -15 -16 -16 -16 -16 -16 -16 -16 -16 -16 -15 -15 -15 -15 -15 -14 -14 -13 -12 -12 -13 -12 -12 -12 -12 -12 -12 -12 -12 -13 -12 -12 -12 -12 -12 -12 -12 -12
-13 -13 -13 -13 -13 -13 -14 -14 -14 -15 -15 -15 -15 -16 -16 -16 -16 -16 -16 -16 -17 -17 -16 -16 -16 -16 -15 -15 -15 -14 -15 -15 -14 -13 -13 -13 -13 -12 -12 -12 -12 -13 -13 -13 -13 -13 -13 -13 -13 -13 -13 -13 -13 -13
-13 -13 -13 -14 -14 -14 -14 -14 -15 -15 -16 -16 -16 -16 -15 -16 -16 -16 -17 -17 -17 -17 -17 -17 -17 -16 -16 -15 -15 -15 -14 -14 -14 -14 -13 -13 -13 -13 -13 -12 -13 -13 -13 -13 -13 -13 -13 -13 -13 -13 -13 -13 -13 -13
-14 -14 -14 -14 -14 -15 -15 -15 -16 -16 -16 -16 -16 -16 -16 -16 -16 -16 -16 -17 -17 -17 -17 -17 -17 -17 -16 -16 -15 -15 -14 -14 -14 -14 -14 -13 -13 -13 -13 -13 -13 -13 -13 -13 -14 -14 -14 -14 -14 -14 -14 -14 -13 -14
-14 -14 -14 -15 -15 -15 -15 -16 -16 -17 -16 -16 -16 -16 -16 -16 -16 -16 -16 -17 -17 -17 -17 -17 -17 -16 -16 -15 -15 -14 -14 -14 -14 -14 -14 -14 -14 -14 -14 -14 -14 -14 -14 -14 -14 -14 -14 -14 -14 -14 -14 -14 -14 -14
-15 -15 -15 -16 -15 -16 -16 -16 -17 -17 -17 -17 -16 -16 -16 -16 -16 -16 -16 -17 -17 -17 -17 -17 -16 -16 -16 -16 -15 -15 -14 -14 -14 -14 -14 -15 -15 -14 -14 -14 -14 -14 -14 -14 -14 -14 -14 -14 -15 -15 -15 -15 -14 -14
-17 -17 -17 -16 -16 -16 -17 -17 -17 -17 -17 -17 -17 -16 -16 -16 -16 -16 -16 -16 -16 -17 -17 -17 -16 -15 -15 -15 -15 -14 -14 -14 -14 -14 -14 -15 -15 -14 -14 -14 -14 -14 -14 -14 -15 -15 -15 -15 -15 -15 -15 -15 -15 -15
-18 -17 -17 -18 -18 -17 -17 -17 -17 -17 -17 -17 -17 -16 -16 -16 -16 -16 -16 -16 -16 -16 -16 -16 -16 -15 -15 -15 -15 -14 -14 -15 -15 -15 -15 -15 -15 -14 -14 -14 -15 -15 -15 -15 -15 -15 -15 -15 -15 -15 -15 -15 -15 -16
-19 -19 -19 -18 -18 -17 -17 -17 -17 -17 -17 -17 -17 -17 -16 -16 -16 -16 -16 -16 -16 -16 -16 -16 -15 -15 -15 -15 -15 -15 -15 -15 -15 -15 -15 -15 -15 -15 -15 -15 -15 -14 -15 -15 -15 -15 -15 -15 -15 -15 -15 -16 -16 -16
-19 -19 -18 -18 -17 -17 -17 -17 -17 -17 -17 -17 -17 -17 -16 -16 -17 -16 -16 -16 -16 -16 -16 -16 -16 -15 -15 -15 -15 -15 -15 -15 -15 -15 -15 -15 -15 -15 -15 -15 -15 -15 -15 -15 -15 -15 -15 -15 -15 -16 -16 -16 -16 -16
-18 -18 -18 -17 -17 -17 -17 -17 -17 -17 -17 -17 -17 -17 -17 -16 -16 -16 -16 -16 -16 -16 -16 -16 -16 -16 -16 -16 -16 -16 -16 -16 -16 -15 -15 -15 -15 -15 -16 -16 -15 -15 -15 -15 -15 -16 -16 -16 -16 -16 -16 -16 -16 -17
-17 -17 -17 -17 -17 -16 -16 -16 -16 -17 -17 -16 -16 -16 -17 -17 -16 -16 -16 -16 -16 -16 -16 -16 -16 -16 -16 -16 -16 -16 -16 -16 -16 -16 -16 -16 -16 -16 -16 -16 -16 -16 -16 -16 -16 -16 -16 -16 -16 -16 -16 -17 -17 -17
-17 -17 -17 -16 -16 -16 -16 -16 -16 -16 -16 -16 -16 -17 -17 -16 -16 -17 -17 -17 -17 -17 -17 -17 -17 -17 -17 -17 -17 -17 -17 -17 -17 -16 -16 -17 -16 -16 -16 -16 -16 -16 -16 -16 -16 -16 -16 -16 -16 -16 -17 -17 -17 -17
-16 -16 -16 -16 -16 -16 -16 -16 -17 -17 -17 -17 -17 -17 -17 -17 -17 -17 -17 -17 -17 -17 -17 -17 -17 -17 -17 -17 -17 -17 -17 -17 -17 -17 -17 -17 -17 -17 -16 -16 -16 -16 -16 -16 -16 -16 -16 -16 -16 -17 -17 -17 -17 -17
-16 -16 -16 -16 -16 -16 -16 -16 -16 -17 -17 -18 -18 -17 -17 -17 -17 -17 -17 -17 -17 -17 -17 -17 -17 -17 -17 -17 -17 -17 -17 -17 -17 -17 -17 -17 -17 -17 -17 -16 -16 -16 -16 -16 -16 -16 -17 -17 -17 -17 -17 -17 -17 -17
-16 -16 -16 -16 -16 -16 -16 -16 -17 -17 -17 -17 -17 -17 -17 -17 -17 -17 -17 -17 -17 -17 -17 -17 -17 -18 -18 -18 -18 -18 -18 -17 -17 -17 -17 -17 -17 -17 -17 -17 -16 -16 -16 -16 -16 -17 -17 -17 -17 -17 -17 -17 -17 -18
-16 -16 -16 -16 -16 -16 -16 -16 -16 -17 -17 -17 -17 -17 -17 -17 -17 -17 -17 -17 -17 -17 -17 -17 -17 -18 -18 -18 -17 -18 -17 -17 -17 -17 -17 -17 -17 -17 -17 -17 -17 -16 -16 -17 -17 -17 -17 -17 -17 -17 -17 -17 -18 -18
-16 -16 -16 -16 -16 -16 -16 -16 -16 -16 -17 -17 -17 -17 -17 -16 -17 -17 -17 -17 -18 -18 -17 -18 -18 -18 -18 -18 -18 -18 -17 -17 -17 -17 -17 -17 -17 -17 -17 -17 -17 -17 -17 -17 -17 -17 -17 -17 -17 -18 -18 -18 -18 -18
-16 -16 -16 -16 -16 -16 -16 -16 -17 -17 -17 -17 -17 -17 -17 -17 -17 -17 -17 -17 -18 -18 -18 -18 -18 -18 -17 -18 -18 -18 -17 -17 -17 -17 -17 -17 -17 -17 -17 -17 -17 -17 -17 -17 -17 -17 -17 -17 -17 -18 -18 -18 -18 -18
Height
5789 5787 5786 5784 5782 5780 5778 5776 5773 5770 5768 5765 5763 5761 5759 5756 5754 5753 5752 5750 5750 5750 5750 5750 5752 5754 5756 5759 5764 5757 5768 5770 5774 5778 5787 5792 5790 5791 5791 5791 5780 5796 5794 5804 5812 5813 5817 5807 5815 5816 5822 5824 5826 5827
5788 5787 5785 5783 5781 5779 5777 5775 5772 5769 5766 5764 5762 5760 5757 5755 5753 5752 5750 5749 5748 5747 5748 5746 5747 5749 5751 5753 5756 5760 5761 5764 5765 5769 5776 5780 5777 5779 5780 5781 5786 5790 5790 5792 5799 5797 5798 5801 5802 5800 5806 5816 5819 5820
5787 5785 5783 5782 5779 5777 5775 5772 5769 5766 5764 5761 5759 5757 5755 5753 5751 5749 5748 5746 5745 5744 5744 5743 5743 5744 5745 5747 5749 5753 5755 5756 5760 5764 5766 5768 5772 5774 5780 5783 5781 5777 5763 5782 5789 5791 5789 5792 5792 5796 5802 5807 5810 5810
5786 5784 5781 5779 5776 5773 5770 5767 5764 5761 5759 5756 5754 5752 5751 5749 5748 5746 5744 5744 5742 5741 5740 5740 5739 5739 5740 5742 5744 5745 5747 5752 5754 5758 5759 5762 5766 5765 5769 5767 5770 5772 5768 5766 5777 5780 5782 5786 5787 5790 5794 5797 5799 5801
5783 5780 5777 5774 5771 5768 5765 5762 5759 5756 5753 5751 5749 5747 5745 5743 5742 5740 5739 5738 5738 5739 5737 5736 5736 5736 5736 5737 5738 5740 5742 5744 5747 5751 5754 5756 5757 5757 5761 5760 5761 5765 5769 5770 5768 5767 5765 5774 5778 5779 5782 5786 5789 5791
5780 5776 5773 5769 5766 5763 5760 5757 5753 5750 5747 5744 5742 5740 5738 5737 5735 5734 5733 5733 5732 5732 5733 5733 5732 5731 5732 5733 5733 5735 5737 5739 5742 5745 5748 5749 5748 5752 5752 5750 5750 5753 5752 5759 5760 5762 5763 5768 5769 5771 5774 5777 5780 5782
5775 5771 5768 5764 5761 5757 5754 5751 5747 5744 5741 5737 5735 5733 5730 5729 5728 5727 5727 5727 5726 5726 5727 5727 5727 5727 5727 5727 5728 5730 5731 5734 5736 5739 5741 5742 5745 5744 5745 5740 5735 5739 5745 5750 5753 5755 5759 5760 5763 5765 5767 5769 5772 5774
5770 5766 5763 5759 5755 5751 5747 5744 5741 5737 5733 5729 5727 5724 5722 5720 5719 5719 5718 5718 5718 5719 5720 5721 5721 5722 5722 5722 5723 5724 5726 5727 5729 5732 5733 5736 5736 5740 5737 5740 5720 5725 5740 5744 5744 5749 5752 5754 5756 5757 5759 5760 5762 5764
5765 5761 5757 5753 5750 5745 5741 5737 5733 5729 5725 5721 5718 5715 5713 5710 5709 5709 5708 5708 5709 5712 5712 5714 5715 5713 5718 5718 5718 5720 5720 5722 5724 5725 5726 5728 5729 5731 5734 5736 5735 5734 5736 5739 5741 5742 5745 5747 5748 5750 5751 5753 5753 5753
5759 5756 5752 5747 5744 5740 5734 5729 5724 5720 5715 5711 5708 5704 5702 5699 5697 5697 5696 5697 5698 5699 5701 5704 5705 5708 5712 5712 5714 5717 5716 5715 5717 5720 5720 5723 5724 5724 5727 5729 5730 5731 5732 5734 5736 5740 5741 5740 5742 5743 5745 5745 5746 5749
5753 5749 5745 5740 5736 5732 5727 5721 5716 5711 5706 5702 5698 5694 5690 5687 5686 5685 5685 5685 5687 5688 5690 5692 5695 5697 5701 5705 5711 5709 5707 5695 5708 5714 5715 5716 5719 5718 5721 5722 5724 5726 5728 5729 5731 5733 5734 5735 5736 5737 5738 5739 5739 5740
5747 5743 5738 5734 5729 5724 5718 5712 5707 5702 5697 5693 5688 5684 5682 5680 5679 5679 5678 5678 5677 5678 5680 5682 5685 5688 5690 5696 5699 5701 5698 5698 5705 5706 5709 5711 5712 5714 5716 5717 5719 5720 5723 5725 5726 5727 5728 5729 5730 5731 5732 5732 5733 5733
5741 5737 5732 5727 5721 5715 5709 5704 5698 5693 5689 5684 5681 5678 5677 5675 5673 5672 5671 5671 5671 5669 5670 5673 5675 5678 5681 5686 5688 5692 5693 5694 5698 5702 5706 5705 5708 5710 5711 5712 5714 5716 5717 5719 5720 5722 5722 5723 5724 5725 5726 5726 5727 5727
5734 5729 5724 5718 5712 5706 5701 5696 5691 5686 5681 5678 5675 5673 5671 5668 5667 5665 5664 5664 5663 5662 5663 5665 5667 5669 5672 5676 5679 5683 5686 5691 5693 5698 5700 5698 5702 5704 5706 5707 5709 5710 5712 5713 5714 5716 5717 5718 5718 5719 5719 5720 5720 5721
5727 5721 5716 5709 5704 5698 5693 5688 5683 5679 5675 5672 5669 5667 5665 5663 5661 5659 5658 5657 5656 5655 5655 5657 5659 5663 5665 5666 5671 5677 5678 5682 5687 5693 5690 5694 5697 5698 5701 5702 5704 5705 5707 5708 5709 5710 5712 5713 5713 5714 5714 5714 5714 5715
5718 5713 5707 5701 5695 5690 5685 5680 5676 5673 5670 5667 5664 5662 5659 5657 5655 5653 5652 5650 5649 5647 5647 5648 5649 5653 5656 5659 5665 5667 5672 5675 5680 5684 5685 5690 5692 5694 5696 5697 5699 5701 5703 5704 5704 5706 5707 5708 5709 5709 5709 5709 5709 5709
5707 5704 5698 5692 5686 5682 5678 5674 5671 5667 5664 5662 5659 5657 5655 5653 5650 5648 5645 5643 5642 5640 5639 5640 5643 5646 5649 5653 5658 5661 5664 5666 5672 5678 5681 5684 5687 5688 5691 5693 5695 5696 5697 5699 5701 5701 5702 5702 5703 5703 5703 5703 5703 5702
5697 5693 5687 5682 5678 5674 5671 5668 5665 5663 5661 5659 5656 5654 5651 5648 5646 5642 5637 5634 5634 5633 5633 5635 5638 5641 5646 5649 5649 5655 5657 5660 5667 5671 5675 5678 5681 5684 5686 5688 5690 5692 5693 5694 5695 5696 5697 5697 5697 5698 5697 5697 5696 5696
5686 5680 5675 5671 5668 5666 5664 5663 5662 5660 5658 5657 5655 5652 5649 5646 5641 5636 5631 5629 5629 5629 5630 5632 5636 5640 5644 5646 5648 5653 5656 5660 5664 5668 5670 5672 5676 5679 5681 5683 5686 5687 5689 5690 5691 5691 5692 5692 5692 5692 5692 5690 5690 5689
5670 5665 5662 5660 5659 5659 5659 5659 5658 5657 5657 5656 5654 5651 5649 5645 5638 5633 5631 5629 5628 5627 5628 5631 5634 5638 5640 5643 5647 5651 5653 5658 5661 5665 5665 5667 5672 5675 5678 5679 5682 5683 5684 5685 5685 5686 5686 5686 5686 5685 5685 5684 5683 5682
5657 5653 5650 5650 5650 5652 5655 5655 5654 5655 5656 5655 5653 5651 5649 5646 5642 5637 5632 5630 5628 5627 5628 5630 5634 5638 5642 5645 5647 5650 5653 5658 5660 5661 5662 5666 5669 5672 5675 5676 5678 5679 5680 5680 5681 5681 5680 5680 5681 5680 5679 5677 5676 5675
5646 5644 5643 5642 5646 5649 5651 5653 5654 5654 5655 5654 5653 5651 5650 5647 5645 5642 5638 5635 5632 5631 5633 5634 5636 5639 5642 5645 5648 5650 5652 5654 5657 5660 5662 5663 5667 5669 5671 5673 5674 5674 5674 5675 5675 5675 5676 5675 5674 5674 5673 5673 5671 5669
5644 5642 5642 5644 5647 5649 5653 5653 5654 5654 5654 5654 5654 5652 5651 5650 5648 5646 5644 5641 5638 5637 5637 5639 5641 5642 5643 5644 5647 5649 5652 5656 5658 5660 5662 5664 5666 5668 5669 5670 5671 5671 5671 5671 5672 5672 5673 5671 5671 5670 5669 5669 5667 5665
5646 5646 5647 5648 5650 5653 5654 5655 5655 5655 5655 5655 5655 5654 5653 5652 5651 5649 5648 5646 5645 5643 5643 5643 5643 5645 5646 5647 5649 5651 5654 5656 5659 5660 5662 5663 5664 5665 5667 5667 5668 5668 5669 5670 5671 5670 5669 5669 5668 5667 5665 5664 5662 5660
5654 5653 5654 5654 5655 5657 5658 5659 5659 5658 5658 5657 5656 5656 5655 5654 5653 5651 5650 5650 5649 5648 5647 5647 5648 5648 5649 5649 5650 5653 5655 5657 5658 5659 5660 5661 5663 5664 5665 5666 5667 5668 5668 5668 5668 5667 5666 5666 5665 5664 5662 5661 5659 5658
5661 5660 5661 5661 5662 5662 5662 5662 5661 5660 5660 5659 5657 5657 5656 5655 5654 5653 5652 5651 5650 5649 5649 5649 5649 5650 5651 5652 5653 5654 5655 5657 5658 5659 5660 5662 5663 5664 5664 5666 5668 5667 5667 5667 5665 5665 5665 5664 5663 5661 5660 5658 5656 5654
5668 5668 5667 5667 5667 5666 5665 5664 5663 5661 5660 5658 5657 5656 5656 5655 5655 5654 5653 5653 5652 5651 5650 5651 5651 5652 5652 5653 5654 5655 5657 5658 5658 5659 5660 5662 5663 5664 5665 5666 5665 5666 5666 5665 5663 5663 5662 5661 5660 5658 5657 5654 5652 5650
5675 5673 5672 5671 5670 5668 5667 5664 5662 5659 5657 5655 5654 5653 5654 5654 5654 5654 5653 5653 5652 5652 5652 5652 5652 5653 5653 5654 5654 5655 5657 5657 5659 5660 5661 5662 5663 5663 5664 5665 5665 5665 5663 5662 5661 5660 5659 5658 5656 5654 5652 5650 5647 5644
5678 5676 5675 5673 5671 5669 5666 5664 5661 5657 5654 5651 5650 5650 5650 5651 5652 5652 5653 5653 5653 5653 5653 5653 5654 5654 5654 5655 5656 5656 5657 5659 5660 5661 5661 5661 5662 5663 5663 5663 5663 5661 5660 5659 5657 5656 5655 5653 5651 5649 5647 5644 5640 5637
5680 5678 5677 5674 5672 5670 5667 5664 5661 5657 5653 5651 5649 5649 5649 5649 5648 5650 5652 5653 5654 5654 5654 5654 5654 5654 5655 5656 5656 5657 5658 5659 5660 5661 5661 5662 5662 5662 5661 5661 5660 5658 5656 5655 5653 5651 5649 5647 5645 5643 5640 5636 5633 5629
5681 5680 5678 5676 5674 5671 5669 5666 5663 5659 5655 5652 5651 5650 5650 5650 5650 5652 5653 5653 5654 5654 5654 5654 5654 5655 5655 5656 5657 5659 5659 5659 5660 5661 5661 5661 5661 5661 5660 5658 5656 5654 5653 5651 5649 5646 5643 5641 5638 5635 5632 5628 5625 5621
5681 5679 5678 5677 5675 5673 5671 5668 5665 5662 5659 5657 5656 5654 5652 5651 5653 5654 5654 5655 5655 5655 5655 5655 5656 5657 5658 5659 5659 5659 5660 5660 5661 5660 5660 5660 5659 5658 5656 5654 5652 5650 5648 5646 5643 5641 5638 5635 5631 5628 5624 5620 5616 5613
5681 5680 5678 5677 5675 5674 5672 5670 5667 5664 5662 5660 5658 5657 5657 5656 5655 5655 5655 5655 5656 5656 5658 5657 5658 5659 5660 5660 5660 5661 5660 5660 5660 5659 5658 5657 5655 5654 5652 5650 5648 5646 5643 5640 5637 5634 5631 5627 5623 5620 5617 5613 5609 5605
Wind_Speed
6 5 5 5 6 9 11 12 13 13 13 13 12 11 11 10 8 8 6 6 7 9 10 14 15 19 20 24 25 22 24 24 26 32 24 27 26 29 37 39 5 28 29 25 25 27 28 43 30 35 27 27 27 26
7 5 8 10 10 10 12 14 16 16 15 14 13 13 12 12 11 9 8 8 8 9 9 13 14 17 19 19 21 20 25 26 28 26 29 30 37 37 42 13 26 35 36 37 32 28 37 41 48 40 32 31 34 33
8 10 12 14 15 15 16 18 20 19 18 18 15 14 12 12 13 13 11 9 9 10 10 11 13 14 18 19 20 23 26 27 25 25 31 26 33 27 22 29 36 45 27 39 37 40 44 39 37 35 31 34 37 39
13 15 17 18 20 21 22 23 22 21 19 18 17 17 17 17 17 16 16 14 11 10 10 11 10 13 16 16 17 21 24 21 26 26 27 29 22 30 27 32 31 33 41 34 40 44 41 41 42 41 39 38 39 39
17 18 21 23 24 25 24 22 20 21 21 20 19 19 20 20 20 19 18 18 16 13 12 11 10 11 15 17 19 21 21 23 25 26 26 26 27 29 27 32 33 34 30 29 34 36 43 35 34 37 37 38 40 43
21 23 24 24 24 24 24 24 25 26 27 27 26 24 23 22 20 21 19 19 19 18 16 15 12 13 13 16 19 20 21 23 23 25 25 29 29 27 26 20 25 31 31 37 34 34 26 21 27 30 32 36 37 37
22 22 23 24 25 26 26 25 25 26 26 27 26 26 26 26 25 24 23 22 21 21 20 18 18 14 15 15 18 21 21 21 22 23 25 27 22 25 22 27 19 28 31 29 32 34 32 30 26 26 27 30 32 35
23 23 24 25 26 27 27 28 28 29 29 28 28 28 28 27 27 26 25 26 26 25 24 21 21 20 18 18 18 19 21 23 24 24 25 26 26 18 24 26 12 4 17 24 27 30 27 31 32 30 30 26 32 33
24 24 25 26 26 26 29 31 32 31 31 31 31 31 30 31 30 29 27 26 27 29 27 23 22 28 21 19 20 17 22 21 23 24 27 26 28 25 23 23 23 25 23 18 16 17 19 24 28 26 26 27 25 20
24 25 26 28 28 29 33 36 34 32 33 34 34 31 28 30 30 29 28 28 28 27 27 27 29 27 22 26 22 23 22 23 21 21 24 22 22 24 20 18 24 25 24 24 25 24 25 28 24 25 24 25 24 20
27 28 29 28 29 32 36 36 32 34 34 31 32 35 31 26 23 23 23 25 26 27 27 28 30 31 26 25 20 25 26 21 16 21 23 22 20 21 18 22 23 25 25 26 25 26 28 29 30 27 26 28 29 27
28 25 25 28 33 35 36 34 33 33 30 35 31 25 19 16 15 16 17 17 18 22 25 27 28 29 30 27 29 31 24 25 22 23 23 20 22 18 18 17 20 23 25 25 26 27 28 29 29 28 26 25 24 23
27 29 31 33 35 36 36 33 33 29 33 27 21 18 17 17 18 18 18 17 16 19 20 22 25 27 28 28 33 31 34 27 29 29 20 23 19 18 19 18 18 18 19 21 24 25 26 26 25 24 23 21 21 22
33 34 33 35 37 37 35 33 29 30 26 21 18 18 19 19 17 15 14 15 18 21 24 24 23 27 28 30 31 33 33 28 32 25 22 25 20 22 17 18 18 18 18 18 19 21 21 22 21 20 19 18 18 18
35 35 36 38 38 37 32 30 27 26 21 18 18 17 16 15 15 16 16 17 17 19 22 26 28 22 22 30 31 31 33 31 29 22 28 22 18 19 17 17 16 17 17 16 16 17 16 16 16 17 18 18 19 20
36 34 37 39 39 35 31 27 25 22 18 18 16 16 14 14 16 17 16 17 17 18 18 23 27 27 31 25 26 26 35 36 31 28 26 20 20 19 18 16 16 15 15 14 14 14 14 16 17 17 18 18 19 19
39 36 40 41 37 30 28 23 22 18 17 16 15 12 13 14 12 16 21 20 18 17 16 21 23 30 21 15 34 26 26 29 33 27 27 24 21 20 17 15 14 14 15 14 14 14 15 16 16 17 18 18 20 22
41 41 43 39 32 27 23 20 17 14 13 13 12 12 13 13 15 21 24 17 14 14 15 16 20 22 21 13 18 28 25 16 21 23 22 22 19 17 16 15 14 14 14 13 14 14 15 17 18 20 21 22 23 24
48 47 42 36 28 24 18 15 12 9 9 9 10 9 13 16 21 17 10 7 7 10 10 12 14 16 12 10 14 19 17 23 22 20 20 18 17 15 15 15 14 13 13 13 15 17 17 19 19 20 19 19 20 20
47 42 37 28 22 17 13 11 8 5 3 8 8 9 13 17 20 9 8 5 2 7 8 12 13 13 8 6 10 16 15 18 19 20 19 16 16 16 14 13 13 14 15 17 18 19 18 18 16 15 15 18 21 21
37 31 22 19 12 9 6 5 5 4 4 6 6 10 12 14 20 26 13 4 4 5 9 11 12 12 8 6 6 12 15 22 21 20 20 18 16 13 13 14 15 16 16 16 15 16 18 17 15 19 19 19 19 19
27 19 15 7 4 4 2 2 2 2 1 3 4 8 11 10 13 17 20 22 13 12 12 16 19 14 11 8 16 27 16 9 11 11 14 15 12 11 12 12 11 12 13 14 14 14 13 13 14 15 17 18 18 17
15 6 3 2 3 5 5 4 2 3 4 5 6 8 9 10 12 13 15 17 18 21 14 11 10 10 20 17 18 21 17 11 8 10 10 7 8 8 10 9 8 9 10 10 10 9 8 8 9 10 11 10 14 14
11 9 8 6 7 8 7 6 5 6 6 6 6 7 6 7 7 10 10 12 12 12 12 11 7 7 9 16 16 15 15 12 10 9 8 6 5 5 6 7 7 6 6 4 2 3 6 8 10 10 11 11 12 13
15 12 13 12 11 9 7 6 5 4 4 4 4 5 6 7 6 6 6 7 8 8 7 6 7 7 8 8 9 10 10 10 7 6 4 4 5 5 4 4 4 4 4 4 4 6 8 9 9 12 13 13 14 14
18 18 16 15 13 11 9 7 6 6 6 5 4 4 3 3 4 5 6 6 5 4 2 2 3 3 4 4 5 5 5 5 6 6 5 5 5 5 4 4 5 4 4 6 6 7 7 9 8 9 11 13 14 16
17 17 16 15 12 10 10 10 9 8 8 8 7 6 5 4 1 1 2 3 3 3 3 0 2 3 4 6 7 6 6 6 7 8 9 9 8 7 6 5 4 5 6 7 6 8 8 7 8 10 13 15 16 17
13 11 10 9 9 8 9 11 12 13 13 11 10 9 10 6 5 3 2 1 0 1 2 2 2 2 5 6 7 7 7 8 8 7 7 6 6 4 4 4 6 6 8 8 10 10 10 10 11 14 17 19 21 21
8 9 9 10 8 9 12 12 13 15 13 9 5 5 8 13 7 4 3 3 2 3 3 3 3 5 6 7 6 7 7 7 4 4 5 3 1 4 5 7 7 8 9 9 12 13 15 16 18 20 22 23 24 25
7 6 7 10 11 11 12 14 16 16 13 10 3 1 4 5 8 5 2 2 3 4 3 2 2 5 7 7 5 3 3 3 3 4 3 4 5 5 6 8 10 12 12 14 16 16 17 18 20 22 24 26 28 30
8 5 6 8 11 12 12 13 14 18 17 10 10 6 2 5 7 4 3 4 4 3 2 1 1 3 5 4 3 2 2 4 4 3 2 3 5 6 8 10 12 14 14 17 19 19 19 20 22 25 28 30 30 30
5 7 9 9 8 9 11 11 12 12 13 11 12 12 12 7 6 4 4 5 5 5 4 4 3 5 6 6 5 4 2 2 1 3 5 6 8 9 11 13 14 15 17 20 19 20 21 23 26 29 30 29 28 28
4 5 7 9 9 6 8 10 11 11 9 9 8 8 7 6 5 3 2 3 4 7 6 5 5 6 4 4 3 1 1 4 6 7 7 9 12 13 15 17 18 19 19 20 22 25 26 28 28 26 26 27 28 31
Wind_Direction
0 11 17 7 353 0 1 3 357 343 336 341 343 341 341 341 336 315 310 293 274 260 247 244 236 230 225 223 217 238 234 230 226 223 222 220 230 230 237 237 229 220 223 226 236 241 243 254 238 225 231 232 234 238
333 327 309 313 323 331 332 334 337 339 340 323 314 317 322 320 324 321 311 296 286 276 259 254 244 233 232 230 238 220 236 230 218 221 219 211 234 221 230 232 234 221 233 226 219 253 235 233 249 257 229 239 241 245
315 304 310 314 318 321 320 323 324 322 322 320 308 300 300 304 308 305 304 297 292 284 278 269 258 249 237 235 234 227 230 231 229 224 225 227 245 249 235 244 239 243 249 242 238 234 237 245 246 253 259 240 242 245
310 308 308 310 312 314 315 317 316 315 316 314 307 299 291 292 294 290 287 286 285 284 281 280 270 248 236 233 231 234 239 236 233 229 234 238 241 247 241 245 242 241 247 245 236 243 249 246 250 253 250 246 247 248
313 313 312 311 312 312 313 313 311 313 312 310 303 296 294 291 289 287 275 272 273 270 273 271 271 264 245 234 229 231 230 231 231 229 233 238 241 246 250 253 249 248 255 251 235 242 242 243 246 252 251 248 247 252
318 316 315 315 316 316 315 314 311 309 307 304 301 299 292 285 284 280 274 267 266 266 263 265 263 260 254 242 235 232 230 229 228 231 235 240 249 255 254 263 241 245 230 243 245 250 258 249 250 249 248 246 248 250
320 319 319 319 319 318 316 317 315 313 310 307 306 301 296 290 283 275 269 263 266 265 262 258 259 259 254 250 242 239 236 232 229 229 232 241 242 248 252 250 278 215 228 240 243 244 246 254 255 253 252 254 254 254
320 319 320 320 321 321 320 319 317 314 309 304 302 300 297 292 287 282 274 268 264 261 260 258 257 255 253 251 245 241 237 235 233 231 232 232 244 235 253 251 260 269 253 240 231 234 238 252 252 255 254 258 250 248
320 318 321 323 323 321 318 318 316 314 312 308 304 300 294 289 284 280 274 269 263 259 258 256 256 254 250 255 256 254 247 244 241 238 241 237 241 243 245 245 250 258 259 257 254 240 245 268 247 244 248 251 255 253
319 319 320 318 315 319 318 318 316 312 311 308 305 302 296 291 285 279 274 268 261 256 252 248 249 253 245 250 250 232 254 249 246 250 248 248 248 249 253 249 253 251 253 254 252 252 256 264 264 263 264 272 276 259
316 313 314 314 315 316 317 316 314 314 313 309 305 301 298 292 284 278 272 265 258 253 247 243 242 243 242 238 233 244 249 213 253 248 250 251 254 252 252 249 249 249 249 252 254 256 255 261 269 273 275 276 279 279
320 320 320 317 316 318 319 317 316 315 312 312 308 303 296 291 286 279 278 275 268 258 248 240 239 239 239 234 236 239 245 223 210 247 253 252 249 254 250 254 251 248 248 249 252 255 258 262 268 272 273 273 273 272
321 320 318 317 317 318 319 317 319 315 318 313 307 298 296 297 294 289 284 279 263 253 247 240 236 234 236 227 230 230 230 239 246 245 249 245 250 252 246 248 251 251 250 250 252 256 258 261 265 267 268 267 269 268
318 316 317 317 317 319 320 320 317 320 317 309 302 299 298 297 294 290 286 273 261 255 249 244 240 232 230 230 231 226 231 223 233 247 242 238 238 246 247 249 251 250 249 250 252 255 260 261 265 268 267 265 265 266
325 318 316 316 318 321 319 320 317 320 313 307 307 303 301 295 291 286 277 274 279 272 255 248 245 241 230 228 230 230 226 237 232 235 237 241 241 247 246 247 250 251 250 250 251 256 259 259 260 262 266 271 275 278
319 318 316 316 317 318 318 316 318 316 310 312 308 308 301 294 296 292 285 277 279 275 263 239 234 226 227 235 228 231 225 227 227 223 235 237 240 244 248 246 243 246 252 251 249 252 258 263 266 270 272 274 275 276
315 317 316 314 314 314 315 311 315 313 313 312 313 312 309 303 297 293 291 280 276 273 260 237 227 221 195 216 228 226 229 233 224 219 230 235 237 239 239 239 239 240 242 247 253 256 259 262 268 270 272 274 275 277
312 313 314 313 311 311 309 308 312 314 317 321 328 329 324 317 306 307 313 270 264 260 254 238 225 224 232 244 220 210 211 194 218 219 222 228 228 229 230 234 238 241 244 246 250 261 265 267 267 269 273 274 275 276
309 309 307 304 304 306 297 302 305 309 325 342 343 343 347 335 327 324 326 289 258 240 242 216 218 206 221 192 189 195 221 214 204 212 222 216 215 220 224 229 233 238 247 254 260 265 266 267 268 273 274 275 280 287
310 307 303 301 291 291 285 297 295 285 336 3 352 1 4 -0 3 8 356 356 259 228 219 198 196 206 220 178 183 189 192 194 205 218 222 212 208 218 224 232 239 245 249 253 258 266 274 276 277 277 283 290 294 297
316 312 302 278 266 259 262 269 264 257 284 344 7 30 31 35 39 37 34 354 348 202 196 186 187 195 194 164 137 175 162 183 206 212 205 202 206 209 219 229 242 252 260 267 270 274 273 273 282 290 290 289 291 293
313 313 294 254 215 224 185 173 219 212 51 38 62 43 38 29 19 34 35 44 65 135 142 151 145 146 156 157 164 168 181 182 194 203 204 191 198 218 235 247 259 265 267 270 276 280 281 289 294 292 291 296 295 299
348 348 30 112 152 129 121 123 92 102 91 93 70 47 30 37 37 38 35 39 49 64 114 144 133 145 185 157 169 178 178 187 202 181 174 193 220 239 245 247 258 266 268 270 275 282 286 296 299 301 299 291 287 300
7 63 75 85 110 103 102 93 89 95 96 87 70 55 40 31 48 49 36 44 52 67 74 88 106 151 151 171 181 193 209 201 190 197 215 227 224 241 253 262 264 267 273 277 263 287 312 314 310 311 306 305 307 309
64 70 86 91 93 90 86 85 79 68 52 50 42 47 57 63 72 57 46 37 54 65 75 99 113 129 136 146 151 143 158 162 163 174 185 205 226 224 228 228 213 201 192 226 281 305 303 303 306 312 317 317 314 313
78 77 80 82 77 74 66 52 38 25 6 349 345 342 348 31 55 54 39 36 29 37 87 113 116 148 149 134 125 125 141 160 176 180 178 190 199 185 180 188 206 220 272 292 308 306 305 314 320 322 318 317 314 311
84 83 80 75 68 60 55 41 22 357 336 324 311 293 276 285 283 340 16 43 66 52 38 124 175 176 171 162 154 153 163 165 162 166 172 179 173 168 188 217 256 279 292 306 308 310 307 300 311 324 326 322 318 314
76 70 66 59 57 45 19 357 345 337 324 301 285 260 237 234 244 248 241 276 2 59 92 66 202 185 167 176 165 160 164 158 156 167 174 175 184 206 249 277 290 299 310 309 313 303 289 289 297 306 312 317 316 313
58 55 44 34 23 6 358 359 351 348 347 329 298 260 228 214 221 233 230 215 195 156 166 160 180 189 161 159 155 154 157 164 164 196 180 180 251 269 284 293 298 306 309 307 310 299 287 287 291 298 304 306 308 309
33 34 40 31 22 10 8 15 14 10 2 6 4 205 220 212 159 140 185 200 180 170 164 154 152 173 185 187 186 170 172 208 215 211 190 202 224 269 292 297 301 308 307 309 311 305 298 294 295 297 300 304 308 309
35 54 24 26 25 20 21 24 23 21 24 42 43 54 162 194 187 202 273 177 172 161 105 84 81 171 193 195 184 165 174 164 171 184 223 265 281 288 293 295 304 304 301 304 306 305 304 302 302 304 306 307 307 307
20 11 13 13 16 19 22 17 14 22 38 50 43 50 57 106 178 183 165 173 180 163 131 111 131 122 130 142 145 154 180 208 259 284 288 287 291 298 304 305 303 301 302 304 305 304 304 304 305 307 308 308 310 312
321 344 350 359 359 356 6 17 23 22 20 27 37 42 47 50 56 67 98 152 156 148 157 144 159 145 158 150 151 169 275 288 284 283 293 300 299 293 295 298 301 305 306 305 303 305 307 309 310 311 311 312 312 312